West Point, VA

11:16 PM EDT on July 29, 2016 (GMT -0400)
West Point

Weather History for KFYJ - January, 2014

Change the Weather History Date:

Tuesday, January 7, 2014

  Actual Average (KRIC) Record (KRIC)
Temperature  
Mean Temperature 18 °F 38 °F  
Max Temperature 23 °F 47 °F 78 °F (1907)
Min Temperature 13 °F 28 °F 10 °F (2014)
Degree Days  
Heating Degree Days 47 27  
Month to date heating degree days 189  
Since 1 July heating degree days 1608  
Cooling Degree Days 0 0  
Month to date cooling degree days 0  
Year to date cooling degree days 0  
Moisture  
Dew Point -8 °F    
Average Humidity 30    
Maximum Humidity 47    
Minimum Humidity 21    
Precipitation  
Precipitation 0.00 in 0.10 in 1.51 in (1908)
Month to date precipitation 0.67  
Year to date precipitation 0.67  
Snow  
Snow 0.00 in 0.10 in 4.50 in (1988)
Month to date snowfall 0.6  
Since 1 July snowfall 2.9  
Snow Depth -    
Sea Level Pressure  
Sea Level Pressure 30.37 in    
Wind  
Wind Speed 13 mph (WSW)    
Max Wind Speed 20 mph    
Max Gust Speed 28 mph    
Visibility 10 miles    
Events      
T = Trace of Precipitation, MM = Missing Value Source: NWS Daily Summary

Daily Weather History Graph

Daily Weather History Graph

Search for Another Location

Airport or City:

Trip Planner

Search our weather history database for the weather conditions in past years. The results will help you decide how hot, cold, wet, or windy it might be!

Date:

Astronomy

Jan. 07, 2014 Rise Set
Actual Time 7:22 AM EST 5:04 PM EST
Civil Twilight 6:53 AM EST 5:33 PM EST
Nautical Twilight 6:20 AM EST 6:06 PM EST
Astronomical Twilight 5:49 AM EST 6:37 PM EST
Moon 11:18 AM EST (1/7) No Moon Set
Length of Visible Light 10h 40m
Length of Day
9h 42m
Waxing Crescent, 45% of the Moon is Illuminated
Jan 7
Waxing Crescent
Jan 7
First Quarter
Jan 15
Full
Jan 24
Last Quarter
Jan 30
New

Hourly Weather History & Observations

Time (EST) Temp. Windchill Dew Point Humidity Pressure Visibility Wind Dir Wind Speed Gust Speed Precip Events Conditions
12:15 AM 22.6 °F 7.9 °F -3.8 °F 31% 30.09 in 10.0 mi WNW 19.6 mph 26.5 mph N/A   Clear
12:35 AM 21.9 °F 9.2 °F -3.5 °F 33% 30.10 in 10.0 mi WNW 13.8 mph 25.3 mph N/A   Clear
12:55 AM 20.7 °F 8.2 °F -7.8 °F 28% 30.11 in 10.0 mi WNW 12.7 mph 19.6 mph N/A   Clear
1:15 AM 20.3 °F 6.1 °F -6.7 °F 30% 30.13 in 10.0 mi WNW 16.1 mph 26.5 mph N/A   Clear
1:35 AM 19.9 °F 6.2 °F -6.5 °F 31% 30.15 in 10.0 mi West 15.0 mph 24.2 mph N/A   Clear
1:55 AM 19.4 °F 7.2 °F -6.3 °F 32% 30.16 in 10.0 mi WNW 11.5 mph 19.6 mph N/A   Clear
2:15 AM 18.5 °F 4.3 °F -6.9 °F 32% 30.18 in 10.0 mi West 15.0 mph 24.2 mph N/A   Clear
2:35 AM 18.1 °F 4.4 °F -8.1 °F 31% 30.19 in 10.0 mi West 13.8 mph 21.9 mph N/A   Clear
2:55 AM 17.8 °F 4.6 °F -6.5 °F 34% 30.20 in 10.0 mi WNW 12.7 mph 18.4 mph N/A   Clear
3:15 AM 17.2 °F 3.9 °F -8.1 °F 32% 30.21 in 10.0 mi WNW 12.7 mph 20.7 mph N/A   Clear
3:35 AM 16.7 °F 1.5 °F -9.0 °F 32% 30.22 in 10.0 mi West 16.1 mph 23.0 mph N/A   Clear
3:55 AM 16.3 °F 0.5 °F -8.5 °F 33% 30.24 in 10.0 mi West 17.3 mph 25.3 mph N/A   Clear
4:15 AM 15.8 °F 1.4 °F -8.7 °F 33% 30.24 in 10.0 mi West 13.8 mph 23.0 mph N/A   Clear
4:35 AM 15.6 °F 0.1 °F -8.1 °F 34% 30.26 in 10.0 mi West 16.1 mph 20.7 mph N/A   Clear
4:55 AM 15.3 °F -0.4 °F -10.5 °F 31% 30.29 in 10.0 mi WNW 16.1 mph 27.6 mph N/A   Clear
5:15 AM 14.9 °F 0.9 °F -9.8 °F 33% 30.31 in 10.0 mi WNW 12.7 mph 25.3 mph N/A   Clear
5:35 AM 14.7 °F -1.6 °F -11.6 °F 30% 30.32 in 10.0 mi West 17.3 mph 24.2 mph N/A   Clear
5:55 AM 14.7 °F -1.1 °F -10.5 °F 32% 30.32 in 10.0 mi West 16.1 mph 21.9 mph N/A   Clear
6:15 AM 14.4 °F -2.0 °F -11.2 °F 31% 30.34 in 10.0 mi West 17.3 mph 20.7 mph N/A   Clear
6:35 AM 14.2 °F -0.6 °F -11.2 °F 32% 30.35 in 10.0 mi West 13.8 mph 21.9 mph N/A   Clear
6:55 AM 13.6 °F -2.4 °F -9.0 °F 36% 30.36 in 10.0 mi WSW 16.1 mph 19.6 mph N/A   Clear
7:15 AM 13.5 °F -2.1 °F -9.6 °F 35% 30.36 in 10.0 mi West 15.0 mph 20.7 mph N/A   Clear
7:35 AM 13.3 °F -2.4 °F -10.1 °F 35% 30.37 in 10.0 mi West 15.0 mph 21.9 mph N/A   Clear
7:55 AM 13.5 °F -0.2 °F -10.1 °F 34% 30.38 in 10.0 mi West 11.5 mph - N/A   Clear
8:15 AM 13.8 °F -0.5 °F -9.9 °F 34% 30.39 in 10.0 mi WSW 12.7 mph 16.1 mph N/A   Clear
8:35 AM 14.5 °F -1.8 °F -10.3 °F 33% 30.41 in 10.0 mi West 17.3 mph 20.7 mph N/A   Clear
8:55 AM 14.9 °F 0.3 °F -10.7 °F 31% 30.43 in 10.0 mi WSW 13.8 mph 21.9 mph N/A   Clear
9:15 AM 15.8 °F 0.3 °F -12.3 °F 28% 30.42 in 10.0 mi West 16.1 mph - N/A   Clear
9:35 AM 16.3 °F 3.4 °F -12.1 °F 28% 30.42 in 10.0 mi West 11.5 mph - N/A   Clear
9:55 AM 16.9 °F 5.5 °F -11.9 °F 27% 30.42 in 10.0 mi West 9.2 mph - N/A   Clear
10:15 AM 17.8 °F 5.2 °F -10.8 °F 28% 30.43 in 10.0 mi West 11.5 mph - N/A   Clear
10:35 AM 17.6 °F 3.7 °F -13.0 °F 25% 30.44 in 10.0 mi West 13.8 mph 19.6 mph N/A   Clear
10:55 AM 18.3 °F 5.9 °F -12.8 °F 25% 30.46 in 10.0 mi West 11.5 mph 21.9 mph N/A   Clear
11:15 AM 18.9 °F 3.8 °F -12.3 °F 25% 30.45 in 10.0 mi West 17.3 mph 21.9 mph N/A   Clear
11:35 AM 19.4 °F 6.0 °F -12.8 °F 23% 30.44 in 10.0 mi West 13.8 mph 21.9 mph N/A   Clear
11:55 AM 19.6 °F 5.2 °F -13.7 °F 22% 30.42 in 10.0 mi West 16.1 mph 24.2 mph N/A   Clear
12:15 PM 19.9 °F 8.6 °F -13.2 °F 23% 30.40 in 10.0 mi West 10.4 mph 23.0 mph N/A   Clear
12:35 PM 20.7 °F 8.2 °F -11.0 °F 24% 30.40 in 10.0 mi West 12.7 mph 21.9 mph N/A   Clear
12:55 PM 21.0 °F 8.1 °F -12.1 °F 23% 30.39 in 10.0 mi WSW 13.8 mph - N/A   Clear
1:15 PM 21.4 °F 7.5 °F -11.4 °F 23% 30.39 in 10.0 mi West 16.1 mph 20.7 mph N/A   Clear
1:35 PM 21.7 °F 10.2 °F -11.9 °F 22% 30.38 in 10.0 mi West 11.5 mph 18.4 mph N/A   Clear
1:55 PM 21.9 °F 11.7 °F -11.2 °F 23% 30.38 in 10.0 mi West 9.2 mph 19.6 mph N/A   Clear
2:15 PM 22.1 °F 12.0 °F -11.9 °F 22% 30.37 in 10.0 mi West 9.2 mph 19.6 mph N/A   Clear
2:35 PM 22.6 °F 13.4 °F -10.7 °F 23% 30.37 in 10.0 mi West 8.1 mph - N/A   Clear
2:55 PM 22.8 °F 13.6 °F -11.4 °F 22% 30.38 in 10.0 mi WNW 8.1 mph 21.9 mph N/A   Clear
3:15 PM 23.5 °F 12.4 °F -10.1 °F 22% 30.39 in 10.0 mi WSW 11.5 mph - N/A   Clear
3:35 PM 23.0 °F 13.9 °F -12.1 °F 21% 30.39 in 10.0 mi WNW 8.1 mph - N/A   Clear
3:55 PM 23.4 °F 11.6 °F -10.5 °F 22% 30.39 in 10.0 mi WSW 12.7 mph 17.3 mph N/A   Clear
4:15 PM 22.8 °F 10.9 °F -12.6 °F 21% 30.39 in 10.0 mi West 12.7 mph 17.3 mph N/A   Clear
4:35 PM 22.6 °F 14.3 °F -11.4 °F 22% 30.39 in 10.0 mi West 6.9 mph - N/A   Clear
4:55 PM 22.1 °F 10.6 °F -12.1 °F 22% 30.40 in 10.0 mi West 11.5 mph - N/A   Clear
5:15 PM 21.7 °F 11.5 °F -9.8 °F 25% 30.41 in 10.0 mi West 9.2 mph - N/A   Clear
5:35 PM 21.2 °F 10.9 °F -9.6 °F 25% 30.42 in 10.0 mi WSW 9.2 mph - N/A   Clear
5:55 PM 21.2 °F 12.6 °F -8.3 °F 27% 30.43 in 10.0 mi SW 6.9 mph - N/A   Clear
6:15 PM 21.0 °F 12.4 °F -8.9 °F 27% 30.44 in 10.0 mi WSW 6.9 mph - N/A   Clear
6:35 PM 21.2 °F 14.9 °F -8.1 °F 27% 30.45 in 10.0 mi SSW 4.6 mph - N/A   Clear
6:55 PM 21.6 °F 12.1 °F -7.1 °F 28% 30.46 in 10.0 mi SW 8.1 mph - N/A   Clear
7:15 PM 21.2 °F 14.9 °F -6.3 °F 30% 30.47 in 10.0 mi SSW 4.6 mph - N/A   Clear
7:35 PM 21.2 °F 13.6 °F -4.2 °F 33% 30.47 in 10.0 mi SSW 5.8 mph - N/A   Clear
7:55 PM 21.0 °F 14.6 °F -3.3 °F 34% 30.48 in 10.0 mi South 4.6 mph - N/A   Clear
8:15 PM 21.0 °F 13.4 °F -1.5 °F 37% 30.48 in 10.0 mi SSW 5.8 mph - N/A   Clear
8:35 PM 21.2 °F 13.6 °F -1.8 °F 36% 30.49 in 10.0 mi SSW 5.8 mph - N/A   Clear
8:55 PM 20.8 °F 14.4 °F -1.1 °F 38% 30.49 in 10.0 mi SSW 4.6 mph - N/A   Clear
9:15 PM 21.2 °F 14.9 °F -1.1 °F 38% 30.49 in 10.0 mi South 4.6 mph - N/A   Clear
9:35 PM 21.2 °F 14.9 °F -0.2 °F 39% 30.50 in 10.0 mi SSW 4.6 mph - N/A   Clear
9:55 PM 21.2 °F 11.7 °F -0.0 °F 40% 30.50 in 10.0 mi SSW 8.1 mph - N/A   Clear
10:15 PM 21.2 °F 12.6 °F 1.6 °F 43% 30.50 in 10.0 mi SSW 6.9 mph - N/A   Clear
10:35 PM 21.0 °F 12.4 °F 1.4 °F 43% 30.50 in 10.0 mi SSW 6.9 mph - N/A   Clear
10:55 PM 20.8 °F 12.1 °F 1.9 °F 44% 30.50 in 10.0 mi SSW 6.9 mph - N/A   Clear
11:15 PM 20.8 °F 12.1 °F 1.8 °F 44% 30.49 in 10.0 mi SW 6.9 mph - N/A   Clear
11:35 PM 20.8 °F 12.1 °F 2.1 °F 44% 30.49 in 10.0 mi SSW 6.9 mph - N/A   Clear
11:55 PM 20.5 °F 11.7 °F 3.0 °F 47% 30.49 in 10.0 mi SW 6.9 mph - N/A   Clear